Wind_Speed
41 41 42 44 46 49 51 52 52 54 55 57 59 62 66 69 73 78 82 86 87 87 86 85 83 83 82 81 81 81 82 84 88 93 95 93 90 88 89 89 90 91 92 92 93 93 94 94 94 95 95 95 96 96 96 96 96 96 97 97 97 98 98 98 99 99 99 100 100 100 101 102 102 103 103 103 104 104 104 104 104 104 104 104 104 104
38 38 39 41 43 46 47 49 50 52 54 56 58 61 65 70 74 78 82 85 86 86 84 84 83 82 81 81 81 82 83 84 88 93 96 94 92 89 89 90 90 91 91 92 93 93 94 94 95 95 96 96 97 97 98 98 98 98 99 99 99 100 100 101 101 102 102 102 103 103 104 104 105 105 105 105 105 105 105 105 104 104 104 103 103 103
36 35 36 38 40 43 45 46 48 50 53 56 59 62 66 70 74 78 81 83 84 84 83 83 83 82 82 82 82 83 84 86 89 93 96 95 93 90 89 90 90 90 91 92 92 93 94 94 95 95 96 97 97 98 98 99 99 100 100 101 101 101 102 103 103 103 104 104 104 105 105 105 105 105 105 105 104 104 104 103 103 103 103 103 103 103
34 33 34 35 37 39 41 43 46 49 52 55 59 63 67 70 74 77 79 81 82 82 82 82 82 81 81 82 82 83 85 88 91 93 95 95 93 91 90 90 90 90 91 92 92 93 94 94 95 96 96 97 97 98 99 99 100 100 101 101 101 102 102 103 103 104 104 104 104 104 104 104 104 104 104 103 103 103 103 103 103 103 103 103 103 103
34 32 31 32 33 35 38 40 42 46 49 53 57 61 65 69 72 74 76 77 78 79 79 79 79 78 78 78 79 81 84 86 89 92 93 93 92 91 90 90 90 91 91 92 92 93 94 94 95 96 96 97 97 98 98 99 99 100 100 101 101 102 102 102 103 103 103 104 104 104 104 103 103 103 103 103 103 103 104 104 104 104 104 104 104 104
35 33 31 30 31 32 34 36 38 41 45 49 53 57 61 64 67 69 71 73 74 74 75 75 75 75 74 73 74 75 78 81 84 87 89 89 89 89 89 90 90 91 91 92 92 93 93 94 95 95 96 96 97 97 98 98 99 100 100 100 101 101 102 102 102 103 103 103 104 104 104 104 104 104 104 104 104 104 105 105 105 104 104 104 104 104
36 34 32 31 30 30 31 33 35 38 41 44 48 51 55 58 61 64 66 68 69 71 72 73 73 73 72 71 70 70 72 75 78 81 83 85 86 88 88 89 90 90 91 91 92 92 93 93 94 94 95 96 96 97 98 98 99 99 100 100 101 101 102 102 103 103 103 104 104 104 104 105 105 105 105 105 105 105 105 105 105 104 104 103 103 102
38 36 34 32 31 30 30 31 32 34 37 40 43 46 49 52 56 58 61 63 66 68 69 71 72 72 72 71 70 69 70 73 75 78 81 83 85 87 88 89 90 90 90 90 90 91 91 92 93 93 94 95 96 96 97 98 98 99 100 100 101 101 102 102 103 103 103 104 104 104 105 105 105 105 105 105 105 105 104 104 103 103 102 101 100 99
38 36 35 33 32 31 31 30 31 31 33 35 38 41 44 47 50 53 56 59 62 64 66 68 70 71 71 71 70 70 71 72 75 77 80 82 84 86 87 88 88 89 89 89 89 90 90 91 92 92 93 94 95 96 97 97 98 99 100 100 101 101 102 102 103 103 104 104 104 104 104 105 104 104 104 104 103 103 102 101 100 99 98 97 96 95
37 36 35 34 33 32 32 31 31 30 31 32 34 36 38 41 44 47 50 53 56 59 62 64 67 69 70 70 70 71 71 72 74 76 79 81 83 84 85 86 86 87 87 87 88 88 89 90 91 91 92 93 94 95 96 97 98 98 99 100 100 101 102 102 102 103 103 103 103 103 103 103 102 102 101 100 100 99 98 97 96 95 94 93 92 91
37 36 35 34 33 32 32 32 31 30 30 31 32 33 34 36 38 40 43 46 49 51 54 58 61 63 65 66 67 68 70 71 73 74 76 78 79 81 82 83 84 84 85 86 86 87 88 89 89 90 91 92 93 94 95 96 97 97 98 99 99 100 100 100 101 101 101 101 100 100 100 99 98 98 97 96 95 94 93 92 91 90 89 88 87 86
36 35 34 34 33 33 32 32 32 31 31 31 32 32 33 33 34 36 38 40 42 44 46 49 51 54 56 59 60 62 64 67 69 70 72 73 75 76 78 79 80 81 82 83 84 85 85 86 87 88 89 90 91 92 93 94 94 95 96 96 97 97 97 97 97 97 97 96 96 95 95 94 93 93 92 91 90 89 88 88 87 86 85 84 84 83
37 36 35 34 34 33 33 33 33 33 33 33 33 33 34 34 34 35 36 38 39 40 41 43 45 47 48 50 53 55 57 60 62 63 65 67 68 70 72 73 75 76 77 78 79 80 81 82 83 84 85 86 87 88 88 89 90 90 91 91 92 92 92 92 92 91 91 91 90 90 89 89 88 87 87 86 86 85 85 84 83 83 82 82 82 81
39 38 37 36 35 35 34 34 34 34 34 35 35 35 36 36 36 37 38 38 39 40 41 42 43 44 45 47 48 50 52 54 55 57 58 60 62 63 65 66 68 69 70 71 73 74 75 76 77 78 79 80 81 82 82 83 84 84 85 85 85 85 86 86 86 85 85 85 85 85 84 84 84 84 84 83 83 83 82 82 82 82 81 81 81 81
41 40 39 39 38 37 37 37 37 37 37 37 37 37 38 38 39 39 40 41 41 42 43 44 45 45 46 47 48 50 51 52 53 54 55 56 58 59 60 61 62 63 65 66 67 68 69 70 71 72 73 74 75 76 77 77 78 79 79 80 80 80 81 81 81 81 81 82 82 82 82 82 82 82 82 82 82 82 82 82 82 81 81 81 81 81
41 40 40 40 40 39 39 39 39 40 40 40 40 40 41 41 42 42 43 43 44 44 45 46 47 48 49 49 50 51 52 53 54 55 56 57 57 58 58 60 61 62 63 64 65 65 66 67 68 69 70 71 72 73 73 74 75 76 76 77 77 78 78 79 79 79 80 80 80 81 81 81 81 82 82 82 82 82 82 82 82 82 82 82 83 83
41 41 40 40 40 40 40 40 41 41 42 42 43 43 44 44 45 45 46 46 47 48 48 49 50 51 52 52 52 53 54 55 56 57 58 59 59 59 59 61 62 63 64 64 65 66 66 67 68 69 70 70 71 72 73 74 74 75 76 76 77 77 78 78 79 79 80 80 81 81 81 82 82 82 82 83 83 83 83 83 84 84 84 84 84 84
44 43 43 42 42 42 42 42 42 42 43 43 44 45 45 46 47 47 48 49 50 50 51 52 53 54 55 56 56 56 56 57 58 59 60 61 62 62 62 63 64 65 66 66 67 67 68 69 69 70 71 72 73 73 74 75 75 76 77 77 78 78 79 79 80 80 81 81 82 82 82 83 83 83 84 84 84 84 85 85 85 85 85 86 86 86
47 47 46 46 46 46 46 46 46 46 46 46 47 47 48 48 49 49 50 51 51 52 53 54 55 56 57 58 59 59 58 60 61 62 63 64 65 65 64 65 66 67 68 69 69 69 70 71 71 72 73 73 74 75 76 76 77 77 78 79 79 80 80 81 81 82 82 83 83 83 84 84 85 85 85 86 86 86 87 87 87 87 88 88 88 88
50 49 49 49 49 49 49 49 49 49 50 50 50 51 51 52 52 52 53 53 54 54 55 56 57 58 59 60 61 61 61 62 63 64 65 66 67 67 67 68 69 70 71 71 72 72 72 73 74 74 75 76 77 77 78 78 79 80 80 81 81 82 82 83 83 84 84 85 85 86 86 86 87 87 88 88 88 89 89 89 89 90 90 90 90 90
51 51 51 51 51 52 52 52 52 52 53 53 54 54 55 55 56 56 57 57 58 58 59 60 60 61 62 63 63 64 63 64 65 66 67 68 69 70 70 70 71 72 73 73 74 74 75 75 76 77 77 78 79 79 80 80 81 82 82 83 83 84 84 85 85 86 86 86 87 87 88 88 89 89 89 90 90 90 91 91 91 91 91 91 91 91
53 53 53 53 53 53 54 54 55 55 55 55 56 57 57 58 59 59 60 60 61 62 62 63 64 64 65 66 67 67 67 67 68 69 70 71 72 72 71 72 72 73 74 75 75 75 76 76 77 78 78 79 80 80 81 81 82 82 83 83 84 84 85 85 86 86 87 87 88 88 89 89 89 90 90 90 90 91 91 91 91 91 91 91 91 91
54 55 55 55 55 55 56 56 57 57 57 58 58 59 60 60 61 62 63 63 64 65 65 66 67 67 68 69 70 70 70 70 71 71 72 73 74 74 73 74 74 75 76 76 76 76 76 77 77 78 78 79 80 80 81 81 82 82 83 83 83 84 84 85 85 85 86 86 87 87 87 88 88 88 89 89 89 89 89 90 90 90 90 90 89 89
56 56 57 57 57 58 58 59 59 60 60 60 61 61 62 63 63 64 65 66 66 67 68 68 69 70 70 71 72 72 73 72 72 73 74 75 75 76 75 75 76 77 77 77 77 77 77 77 78 78 78 79 79 80 80 80 81 81 81 82 82 82 83 83 83 84 84 84 85 85 85 86 86 86 86 87 87 87 87 87 87 87 87 87 87 87
58 58 58 59 59 59 60 60 61 62 62 63 63 64 64 65 66 66 67 67 68 69 69 70 71 72 72 72 73 74 74 74 74 74 74 75 76 76 76 76 77 77 78 77 77 77 77 78 78 78 78 79 79 79 79 80 80 80 80 81 81 81 81 82 82 82 82 83 83 83 83 84 84 84 84 85 85 85 85 85 85 85 85 85 85 85
59 59 60 60 60 61 61 62 63 63 64 65 65 66 66 67 68 68 69 69 70 70 71 71 72 72 73 73 74 75 75 74 74 74 75 75 76 76 76 76 76 77 78 78 77 77 77 78 78 78 78 78 79 79 79 79 80 80 80 80 80 81 81 81 81 81 81 82 82 82 82 82 83 83 83 84 84 84 84 84 84 84 84 84 84 83
60 60 61 61 62 62 63 63 64 65 66 66 67 68 68 69 70 70 71 71 71 71 72 72 73 73 73 73 74 75 75 75 75 75 74 75 76 76 76 76 76 77 77 77 77 77 77 78 78 78 78 78 79 79 79 79 80 80 80 80 80 81 81 81 81 81 81 81 81 82 82 82 82 83 83 83 83 83 83 83 83 83 82 82 82 82
61 62 62 62 63 63 64 65 66 66 67 68 68 69 69 70 71 72 72 72 71 72 72 72 73 73 73 73 74 74 75 75 75 75 74 75 75 76 76 76 76 77 77 78 78 77 78 78 78 79 79 79 79 79 80 80 80 80 81 81 81 81 81 81 81 81 81 81 81 81 81 82 82 82 82 83 82 82 82 82 81 81 80 80 80 79
62 63 63 64 64 65 65 66 67 68 68 69 70 70 70 71 71 72 72 72 72 72 72 72 72 72 72 73 73 73 74 74 74 74 74 75 76 76 76 76 77 77 78 79 79 79 79 79 79 79 80 80 80 80 80 80 81 81 81 81 81 81 81 81 81 81 81 81 81 81 81 81 81 81 81 81 81 80 80 79 78 78 77 77 77 76
64 64 64 65 66 66 67 68 68 69 70 70 71 71 71 71 71 71 72 71 71 71 71 71 71 71 71 72 72 73 73 73 73 73 74 75 76 76 76 77 77 78 78 79 80 81 80 80 79 80 80 81 81 81 81 81 81 81 81 81 80 80 80 80 80 80 80 80 79 79 79 79 79 79 79 79 78 77 77 76 75 74 74 73 73 73
65 65 66 67 67 68 69 69 70 71 71 71 72 72 72 71 71 71 71 71 70 70 70 70 70 70 70 70 71 71 72 73 73 73 73 74 76 76 76 77 78 79 79 80 81 82 82 82 81 80 80 81 81 81 81 81 80 80 80 79 79 79 78 78 78 78 78 77 77 77 77 77 77 76 76 75 75 74 73 72 71 70 70 70 69 69
66 67 67 68 69 70 70 71 72 72 72 72 72 72 72 71 71 71 70 70 69 69 69 69 69 69 69 69 70 70 71 72 72 73 73 74 76 76 77 77 78 79 79 80 81 82 82 83 82 81 80 80 80 80 80 79 79 78 78 77 77 76 76 76 75 75 74 74 73 73 73 73 73 73 72 72 71 70 69 68 67 66 66 66 66 65
68 68 69 69 70 71 72 72 73 73 73 73 73 73 72 72 71 70 70 69 69 69 68 68 69 68 69 69 69 69 70 71 72 73 74 75 76 76 77 77 78 78 79 79 80 80 81 82 81 80 80 79 79 78 77 77 76 75 75 74 73 73 72 71 71 71 70 70 69 69 69 69 69 69 68 67 67 66 65 64 63 63 62 62 62 62
69 70 70 71 71 72 73 73 74 74 74 74 73 73 72 72 71 70 70 69 69 68 68 68 68 68 69 69 69 70 70 71 72 73 74 74 75 76 76 76 76 77 77 78 78 78 79 79 79 79 78 77 76 75 74 73 72 71 70 69 69 68 67 67 66 66 65 65 65 65 65 65 65 65 64 63 63 62 61 60 59 59 59 59 59 59
70 71 71 72 73 73 74 75 75 75 75 74 74 73 72 72 71 70 70 69 69 68 68 68 68 68 69 69 70 71 71 72 72 73 73 74 74 74 75 75 75 75 75 75 75 75 76 76 76 76 76 75 74 72 70 69 68 67 66 65 64 63 62 62 61 61 61 61 61 61 61 61 61 61 60 60 59 58 57 56 56 56 56 56 56 56
72 72 73 73 74 74 75 75 75 75 75 74 74 73 72 72 71 70 70 69 69 69 69 69 69 69 69 70 70 71 71 72 72 72 72 72 72 72 72 72 72 72 72 72 72 72 72 73 73 73 73 72 71 69 67 65 64 62 61 60 59 58 58 57 57 56 56 57 57 57 57 57 57 57 57 56 55 54 53 53 53 52 52 52 52 52
73 73 74 74 75 75 76 76 76 75 75 74 74 73 72 71 71 70 70 69 69 69 69 70 70 70 70 70 70 71 71 71 71 71 71 70 70 70 70 69 69 68 68 68 68 69 69 69 70 70 69 69 68 67 65 62 61 59 57 56 55 54 53 53 52 52 52 53 53 53 53 54 54 53 53 53 52 51 50 50 49 49 49 50 50 49
74 74 75 75 76 76 77 77 76 76 75 74 73 73 72 71 71 70 70 70 70 70 70 70 70 70 70 70 70 70 70 69 69 68 68 68 67 67 66 66 66 65 65 65 65 66 66 66 67 67 66 66 65 64 62 60 58 56 54 53 51 50 49 49 48 48 48 49 50 50 50 50 50 50 50 49 48 48 47 47 47 47 47 47 47 47
75 76 76 76 77 77 77 77 77 76 75 74 73 72 71 71 70 70 70 70 70 70 70 70 70 70 70 70 69 68 68 67 66 66 65 64 64 64 63 63 63 62 62 62 62 63 63 64 64 64 64 63 62 61 60 58 56 54 52 50 48 47 46 45 44 44 45 45 46 47 47 48 48 47 47 46 45 45 44 44 44 44 45 45 45 45
77 77 77 77 77 78 78 77 77 76 75 74 73 72 71 71 70 70 70 70 70 70 70 70 70 70 69 68 67 66 65 64 64 63 62 62 61 61 61 60 60 60 60 60 60 61 61 61 62 62 61 61 60 59 58 56 54 52 50 48 46 44 42 41 40 40 41 42 43 44 45 45 45 45 45 44 43 42 42 42 42 42 43 43 44 44
78 78 78 78 78 78 78 77 76 76 75 74 73 72 71 71 70 70 70 70 70 70 70 70 69 68 67 66 65 64 63 62 61 60 59 59 59 58 58 58 58 58 58 58 59 59 59 60 60 59 59 58 58 57 56 54 52 50 48 46 45 42 40 39 37 37 38 39 40 42 43 43 43 43 43 42 41 40 40 40 41 41 42 42 42 42
79 79 79 79 79 79 78 77 76 75 74 73 72 72 71 71 71 70 71 71 70 70 70 69 68 67 65 64 62 61 60 59 58 58 57 57 57 57 57 57 57 57 57 57 58 58 58 58 58 57 57 56 55 55 53 52 50 48 46 44 43 41 39 37 36 35 36 37 38 39 40 41 42 42 41 40 39 39 39 39 39 40 41 41 41 42
80 80 80 80 80 79 78 78 77 75 74 73 72 72 71 71 71 71 71 70 70 70 69 68 67 65 64 62 60 59 58 57 56 56 56 55 55 55 55 55 55 55 56 56 56 56 56 56 56 55 54 54 53 52 51 49 48 45 44 42 41 39 38 36 35 34 35 35 36 37 38 39 40 40 39 39 38 38 38 38 39 39 40 40 41 41
80 80 80 80 80 79 79 78 76 75 74 73 73 72 71 71 71 71 71 70 70 69 68 67 65 64 62 60 59 57 56 55 55 54 54 54 54 54 54 54 54 54 55 55 55 55 55 55 54 53 52 52 51 50 49 47 45 44 42 40 39 38 37 35 35 34 34 35 35 36 37 38 38 39 38 38 37 37 38 38 39 39 40 40 40 41
81 81 81 81 80 80 79 78 77 75 74 74 73 72 72 72 71 71 71 70 69 68 67 65 64 62 60 59 57 56 55 54 53 53 53 53 53 53 53 53 53 53 53 54 54 54 54 54 53 52 51 49 49 47 46 45 43 42 40 38 37 36 36 35 35 35 35 35 35 35 36 36 37 37 37 37 37 37 37 38 38 39 39 40 40 40
82 82 81 81 80 80 79 78 77 76 75 74 73 73 72 72 72 71 71 70 69 67 66 64 63 61 60 58 57 56 55 54 53 52 51 51 51 51 51 51 52 52 52 52 53 53 53 52 51 50 49 48 47 45 44 43 42 40 39 37 36 36 35 35 35 35 36 36 35 35 35 35 36 36 37 37 37 37 37 38 38 38 39 39 40 40
83 82 82 81 80 80 78 77 77 76 75 74 73 73 73 72 72 71 70 69 68 66 65 63 62 60 59 58 57 56 55 54 53 51 51 50 50 50 50 50 50 50 51 51 51 51 51 51 50 49 48 46 45 43 42 41 40 39 37 36 36 35 35 36 36 36 36 36 36 35 35 35 35 36 36 37 37 37 37 37 37 37 38 38 39 39
83 83 82 81 80 79 78 77 76 76 75 74 74 73 73 72 72 71 70 69 67 66 64 63 61 60 59 58 57 56 55 54 53 51 50 49 49 48 48 48 48 49 49 49 49 50 50 49 48 47 46 45 44 42 41 40 39 38 37 36 36 36 36 36 37 37 37 37 36 36 35 35 35 36 36 37 37 37 37 36 36 36 37 37 38 38
83 82 82 81 80 79 78 77 76 76 75 74 74 73 73 72 71 71 70 68 66 65 63 62 61 60 59 58 57 56 55 54 53 52 50 49 48 48 47 47 47 47 47 47 48 48 48 48 47 46 45 43 42 41 40 39 38 37 36 36 36 37 37 37 38 38 37 37 36 35 35 34 35 35 36 37 37 36 35 35 35 35 36 36 36 36
83 82 81 81 80 79 78 77 76 75 75 74 74 73 73 72 71 70 68 67 66 64 63 62 61 60 59 58 57 56 55 54 53 52 50 49 48 47 46 46 46 46 46 46 46 46 46 46 45 44 43 42 41 41 40 39 38 37 36 36 37 37 38 38 38 38 38 37 36 35 34 34 35 36 36 36 36 35 34 33 33 34 34 35 35 34
83 82 81 80 79 78 77 77 76 75 75 74 74 73 73 72 70 69 67 66 65 63 62 61 60 59 59 58 57 56 55 54 53 52 50 49 48 47 46 45 45 45 45 45 45 45 45 45 44 43 42 41 40 40 40 39 38 37 37 37 37 38 38 39 39 39 38 37 36 34 34 34 35 35 36 36 35 33 32 31 31 32 33 33 33 32
Wind_Direction
292 284 276 269 263 258 254 251 248 245 244 243 244 245 245 246 247 247 248 250 251 252 252 253 254 254 255 255 256 256 257 258 260 261 263 263 263 262 261 261 262 262 262 263 263 263 264 264 264 265 266 266 267 267 267 268 268 268 268 268 269 269 269 269 269 269 269 269 269 270 270 270 270 271 271 271 272 272 272 273 273 273 274 274 274 274
297 289 281 273 266 261 257 252 248 244 241 241 241 242 244 245 246 247 249 250 251 252 253 254 254 254 254 255 255 255 256 257 259 261 263 264 264 263 263 262 262 263 263 263 263 264 264 264 264 265 265 266 266 266 267 267 267 267 268 268 268 268 268 268 269 269 269 269 269 269 270 270 270 271 271 271 272 272 272 273 273 273 273 274 274 274
304 296 288 280 273 267 261 256 250 245 242 240 240 241 243 245 247 248 250 252 253 253 254 254 254 254 254 254 254 254 255 256 258 260 262 264 265 265 264 264 264 264 264 264 264 264 265 265 265 265 265 266 266 266 266 267 267 267 268 268 268 268 268 269 269 269 269 269 269 270 270 270 271 271 271 272 272 272 273 273 273 273 274 274 274 275
314 307 298 290 283 277 270 263 257 251 246 243 241 242 243 245 248 250 252 253 255 255 256 256 256 256 255 255 255 255 255 256 257 260 262 264 266 267 266 266 266 265 265 265 265 265 265 266 266 266 266 266 266 267 267 267 268 268 268 268 269 269 269 269 269 270 270 270 270 271 271 271 271 272 272 272 273 273 273 273 274 274 274 274 275 275
326 319 311 302 293 287 281 274 267 261 255 250 248 247 247 248 251 253 255 256 258 259 260 261 261 260 259 258 257 257 257 257 259 260 263 265 266 267 267 267 267 266 266 266 266 266 266 266 266 267 267 267 267 267 268 268 268 268 269 269 269 269 269 270 270 270 270 271 271 271 272 272 272 273 273 273 273 274 274 274 274 274 275 275 275 275
336 331 323 315 305 297 290 284 278 272 267 262 258 256 255 255 256 258 259 261 262 263 264 265 266 266 265 264 262 261 260 260 261 262 263 265 266 267 267 267 267 267 267 267 267 267 267 267 267 267 267 267 268 268 268 268 269 269 269 269 269 270 270 270 270 270 271 271 271 272 272 273 273 273 273 274 274 274 274 274 274 275 275 275 275 275
342 339 333 326 319 310 301 293 288 282 277 273 269 266 264 263 263 263 264 264 265 266 266 267 268 269 270 269 268 266 265 264 264 264 265 266 266 267 267 267 267 267 267 267 267 267 267 267 267 267 267 268 268 268 268 269 269 269 269 269 270 270 270 270 271 271 271 271 272 272 273 273 273 273 274 274 274 274 274 274 275 275 275 275 275 275
345 343 340 335 330 323 314 306 298 292 286 282 278 275 272 270 269 268 268 268 268 267 268 268 269 270 271 272 271 270 269 267 267 266 266 266 266 267 267 267 267 267 267 267 267 267 267 267 267 267 267 268 268 268 269 269 269 269 270 270 270 270 270 271 271 271 272 272 272 273 273 273 274 274 274 274 274 274 275 275 275 275 275 275 275 275
344 344 343 340 336 331 326 319 311 304 297 291 286 282 278 276 274 272 271 270 269 269 269 269 269 270 271 272 272 272 271 269 268 267 267 266 266 266 266 267 267 267 267 267 267 267 268 268 268 268 268 268 268 269 269 269 270 270 270 270 271 271 271 272 272 272 273 273 273 273 274 274 274 274 274 274 275 275 275 275 275 275 275 275 275 274
341 342 341 340 338 335 332 327 322 316 309 302 296 291 286 282 279 277 274 272 271 270 270 269 269 270 271 271 272 272 271 270 269 268 267 267 267 267 267 267 268 268 268 268 268 268 269 269 269 269 269 269 269 270 270 270 270 271 271 271 272 272 272 273 273 273 273 274 274 274 274 274 274 274 275 275 275 275 275 274 274 274 274 274 274 273
338 338 337 337 335 333 331 329 326 322 317 312 306 301 296 292 288 285 281 278 276 274 272 271 271 271 271 272 272 272 272 271 270 270 269 269 269 269 269 269 269 269 270 270 270 270 270 270 270 270 270 271 271 271 271 271 271 272 272 272 272 273 273 273 273 274 274 274 274 274 274 274 274 274 274 274 274 274 274 274 274 273 273 273 273 272
334 333 333 332 331 330 328 326 324 322 319 315 312 308 305 301 297 294 291 288 285 282 280 277 276 275 275 274 274 274 273 272 272 272 271 271 271 271 271 271 271 271 271 271 271 271 271 272 272 272 272 272 272 272 272 272 272 272 273 273 273 273 273 273 274 274 274 274 274 274 274 274 274 274 274 274 274 273 273 273 273 272 272 272 272 271
329 329 329 328 326 325 324 322 320 318 316 314 312 309 307 305 302 299 296 294 292 289 287 285 283 281 280 279 278 277 276 275 274 274 274 274 273 273 273 273 273 273 273 273 273 272 273 272 273 273 273 273 273 273 273 273 273 273 273 273 273 273 273 273 273 274 274 274 274 274 273 273 273 273 273 273 273 273 272 272 272 272 272 271 271 271
327 326 326 325 324 322 321 319 317 315 313 311 309 307 305 303 301 299 297 295 293 292 290 288 286 284 283 281 280 279 278 277 276 276 276 275 275 274 274 274 274 274 274 274 273 273 273 273 273 273 273 273 273 273 273 273 273 273 273 273 273 273 273 273 273 273 273 273 273 273 273 273 273 272 272 272 272 272 272 272 272 272 271 271 271 271
325 325 324 323 322 320 319 317 315 313 311 309 307 305 303 301 300 298 296 294 293 291 289 287 286 284 283 282 281 280 279 278 278 278 277 276 276 275 275 275 275 275 274 274 274 274 273 273 273 273 273 273 273 273 273 273 273 273 273 272 272 272 272 272 272 272 272 272 272 272 272 272 272 272 272 272 272 272 272 272 272 272 272 271 271 271
322 322 321 321 320 318 317 315 314 312 310 309 307 305 303 302 300 298 296 295 293 292 290 289 287 286 285 283 282 282 281 281 280 279 279 278 277 277 277 276 276 276 275 275 275 274 274 274 274 273 273 273 273 273 273 273 272 272 272 272 272 272 272 272 272 273 272 272 273 273 273 273 273 273 273 273 273 273 272 272 272 272 272 272 272 271
319 319 318 317 316 315 314 313 311 310 309 307 306 305 303 302 300 299 297 296 295 294 292 291 290 289 288 286 285 284 284 284 283 282 281 281 280 279 279 278 278 277 277 276 276 275 275 275 275 274 274 274 274 273 273 273 273 273 273 273 273 273 273 273 273 273 273 273 273 273 273 273 273 273 273 273 273 273 273 273 273 272 272 272 272 271
318 317 317 316 314 313 312 310 309 308 307 305 304 303 301 300 299 298 297 296 295 294 293 292 291 291 290 289 288 287 287 286 285 285 284 283 282 281 281 280 280 279 279 278 278 277 277 276 276 276 275 275 275 275 274 274 274 274 274 274 274 274 274 274 274 274 274 274 274 274 274 274 274 274 274 273 273 273 273 273 273 272 272 272 272 271
318 317 317 316 315 313 312 311 309 308 307 305 304 302 301 300 298 297 296 295 294 294 293 292 291 290 290 289 289 288 288 287 286 285 285 284 283 283 282 282 281 280 280 279 279 278 278 278 277 277 276 276 276 276 275 275 275 275 275 275 275 275 275 275 275 275 275 274 274 274 274 274 274 274 274 274 274 273 273 273 273 273 272 272 272 271
318 317 317 316 315 314 313 311 310 309 308 307 305 304 302 301 300 299 297 296 295 294 293 292 291 290 290 289 288 288 287 286 285 285 284 284 283 283 283 282 281 281 280 280 279 279 279 278 278 277 277 277 277 276 276 276 276 276 276 275 275 275 275 275 275 275 275 275 275 275 275 274 274 274 274 274 274 273 273 273 273 273 272 272 272 272
317 316 316 315 314 313 312 311 310 309 308 307 306 305 304 303 302 301 300 299 298 297 295 294 293 292 292 291 290 289 288 287 286 285 285 284 284 283 282 282 281 280 280 279 279 279 278 278 278 277 277 277 276 276 276 276 276 276 276 275 275 275 275 275 275 275 275 275 275 275 274 274 274 274 274 274 274 273 273 273 273 273 272 272 272 272
316 316 315 314 314 313 312 311 310 309 308 307 306 305 304 303 302 302 301 300 299 298 297 296 295 295 294 293 292 291 290 289 288 287 287 286 285 284 283 283 282 281 281 280 279 279 278 278 278 277 277 277 276 276 276 276 275 275 275 275 275 275 275 275 275 274 274 274 274 274 274 274 274 274 274 274 273 273 273 273 273 273 273 272 272 272
316 315 315 314 313 313 312 311 310 309 308 307 306 305 304 303 303 302 301 300 299 299 298 297 296 295 295 294 293 292 291 291 290 289 289 288 287 286 285 285 284 283 282 282 281 280 280 279 279 278 278 277 277 277 276 276 276 276 275 275 275 275 275 275 274 274 274 274 274 274 274 274 274 274 274 274 273 273 273 273 273 273 273 273 272 272
316 315 315 314 313 312 312 311 310 309 308 307 306 305 304 303 303 302 301 300 299 299 298 297 296 296 295 294 293 293 292 291 291 290 289 288 288 287 287 286 285 285 284 283 283 282 282 281 280 280 279 279 278 278 278 277 277 277 276 276 276 276 275 275 275 275 275 275 275 275 274 274 274 274 274 274 274 274 274 274 274 273 273 273 273 273
315 315 314 314 313 312 311 310 309 309 308 307 306 305 304 304 303 302 301 300 300 299 298 297 296 296 295 294 293 293 292 291 291 290 289 289 288 288 287 286 286 285 285 284 284 283 283 282 282 281 281 280 280 279 279 279 278 278 278 278 277 277 277 277 276 276 276 276 276 276 276 276 276 275 275 275 275 275 275 275 274 274 274 274 274 273
315 314 313 313 312 311 311 310 309 308 307 307 306 305 304 304 303 302 301 300 300 299 298 297 296 296 295 294 293 293 292 292 291 290 289 289 288 288 287 287 286 285 285 285 284 284 283 283 282 282 282 281 281 281 280 280 280 279 279 279 278 278 278 278 278 278 277 277 277 277 277 277 277 277 276 276 276 276 276 275 275 275 275 274 274 274
314 313 313 312 312 311 310 309 309 308 307 307 306 305 304 304 303 302 301 300 300 299 298 297 296 296 295 294 293 293 292 292 291 290 290 289 288 288 287 287 286 286 285 285 285 284 284 283 283 283 282 282 282 281 281 281 280 280 280 280 279 279 279 279 279 279 279 278 278 278 278 278 278 277 277 277 277 276 276 276 275 275 275 275 275 274
313 313 312 312 311 311 310 309 309 308 307 307 306 305 305 304 303 302 301 301 300 299 298 297 296 296 295 294 293 293 292 291 291 291 290 289 289 288 288 287 287 286 286 285 285 285 284 283 283 283 283 282 282 282 281 281 281 281 280 280 280 280 280 280 280 279 279 279 279 279 279 279 278 278 278 277 277 277 276 276 276 275 275 275 275 275
313 313 312 312 311 311 310 309 309 308 307 307 306 305 305 304 303 302 302 301 300 299 298 297 297 296 295 294 293 293 292 291 291 291 291 290 289 288 288 288 287 286 286 286 285 285 284 284 283 283 283 283 282 282 282 281 281 281 281 281 280 280 280 280 280 280 280 280 280 280 279 279 279 278 278 277 277 276 276 276 276 276 275 275 275 275
313 313 312 312 311 311 310 310 309 308 308 307 307 306 305 304 304 303 302 301 300 300 299 298 297 296 295 294 293 293 292 291 291 291 290 289 289 288 288 288 287 287 286 286 285 285 285 284 284 283 283 283 282 282 282 281 281 281 281 281 281 281 281 281 281 281 281 280 280 280 279 279 279 278 278 277 277 276 276 276 276 276 276 275 275 275
313 313 313 312 312 311 311 310 309 309 308 308 307 307 306 305 304 304 303 302 301 300 299 298 297 296 295 294 293 292 292 291 291 291 290 289 288 288 288 287 287 286 286 285 285 285 285 284 284 284 283 283 282 282 282 282 282 281 281 282 282 282 282 281 281 281 281 281 280 280 279 279 278 278 277 277 277 276 276 276 276 276 275 275 275 274
313 313 313 313 312 312 311 311 310 310 309 309 308 307 307 306 305 304 304 303 302 301 300 299 297 296 295 294 293 292 292 291 291 291 290 289 288 288 287 287 286 286 286 285 285 284 285 284 284 284 283 283 283 282 282 282 282 282 282 282 282 282 282 282 282 281 281 281 280 280 279 278 278 277 277 277 276 276 276 276 276 276 275 275 274 274
314 313 313 313 313 312 312 311 311 310 310 309 309 308 308 307 306 305 304 303 303 301 300 299 298 297 296 295 294 293 292 292 292 291 290 289 289 288 288 287 287 286 286 286 285 285 284 284 284 284 284 283 283 283 283 283 283 283 283 283 283 282 282 282 282 281 281 280 280 279 278 278 277 277 277 276 276 276 276 276 275 275 274 274 274 273
314 314 314 314 313 313 312 312 312 311 311 310 310 309 309 308 307 306 305 304 303 302 301 300 299 298 297 296 295 294 293 293 292 292 291 290 290 289 289 288 287 287 287 286 286 285 285 285 285 285 284 284 284 284 283 283 283 283 283 283 283 283 282 282 281 281 280 280 279 278 278 277 277 277 276 276 276 276 275 275 275 274 274 273 273 273
314 314 314 314 314 314 313 313 312 312 311 311 310 310 309 309 308 307 306 305 304 303 302 301 300 299 299 298 297 296 295 294 294 293 292 291 291 290 289 289 288 288 287 287 286 286 286 285 285 285 285 285 285 285 285 284 284 284 284 283 283 283 282 282 281 281 280 279 278 278 277 277 276 276 276 276 275 275 275 274 274 274 273 273 273 272
314 314 315 315 315 314 314 313 313 312 312 311 311 310 310 309 309 308 307 306 305 304 303 302 302 301 300 299 298 297 297 296 295 294 293 292 292 291 290 290 289 289 288 288 287 287 287 286 286 286 286 286 286 286 286 286 285 285 285 284 284 283 283 282 281 280 279 278 278 277 276 276 276 275 275 275 275 275 274 274 274 273 273 272 272 272
315 315 315 315 315 315 314 314 313 313 312 312 312 311 310 310 309 308 308 307 306 305 304 303 303 302 301 300 299 298 297 297 296 295 294 293 292 292 291 291 290 290 289 289 288 288 287 287 287 287 287 287 287 288 288 287 287 286 286 285 285 284 283 282 281 280 279 278 277 276 276 275 275 274 274 274 274 274 274 274 273 273 273 272 272 272
315 316 316 316 316 316 315 314 314 313 313 313 312 312 311 310 310 309 308 308 307 306 305 304 303 303 302 301 300 299 298 297 296 295 295 294 293 293 292 292 291 291 290 290 289 289 288 288 288 288 288 288 288 288 289 289 288 288 287 286 285 284 283 282 281 279 278 277 276 276 275 274 274 274 274 274 274 274 274 274 273 273 272 272 272 271
316 316 317 317 317 316 316 315 314 314 314 313 313 312 312 311 310 309 309 308 307 307 306 305 304 303 302 301 301 300 299 298 297 296 295 295 294 293 293 292 292 291 291 290 290 289 289 289 289 289 289 289 289 289 289 289 289 289 288 287 286 284 283 282 280 279 277 276 276 275 274 274 274 274 274 274 274 274 273 273 273 272 272 271 271 271
317 317 318 318 317 317 316 315 315 314 314 313 313 312 312 311 311 310 309 309 308 307 306 305 305 304 303 302 301 300 300 299 298 297 296 295 295 294 294 293 293 292 291 291 290 289 289 289 289 289 289 290 290 290 290 290 290 290 290 288 287 285 283 281 279 278 277 275 275 274 274 274 274 274 274 274 274 273 273 273 272 272 271 271 271 270
317 318 318 318 318 317 316 316 315 315 314 314 313 313 312 312 311 311 310 309 309 308 307 306 305 304 303 303 302 301 300 299 299 298 297 296 296 295 294 294 293 292 292 291 290 290 289 289 289 289 290 290 290 291 291 291 291 291 290 289 288 286 283 281 279 277 275 274 274 273 273 274 274 274 274 274 273 273 273 272 272 271 271 270 270 270
318 319 319 319 318 318 317 316 316 315 315 314 314 313 313 313 312 312 311 310 310 309 308 307 306 305 304 304 303 302 301 300 299 298 298 297 296 295 295 294 293 293 292 291 290 290 290 289 290 290 290 290 291 291 291 291 291 291 290 289 288 286 284 282 279 276 274 273 273 272 273 273 273 274 274 274 273 273 272 272 271 271 270 270 270 270
319 319 320 319 319 318 317 316 316 316 315 315 314 314 314 314 313 313 312 312 311 310 309 308 307 306 305 305 304 303 302 301 300 299 298 297 297 296 295 294 294 293 292 291 291 290 290 290 290 290 290 291 291 291 291 292 291 291 290 289 288 286 285 282 280 277 275 273 272 272 272 273 273 274 274 274 273 273 272 271 271 270 270 270 270 271
319 320 320 320 319 318 317 317 316 316 316 316 315 315 315 314 314 314 313 313 312 311 310 309 308 307 306 305 304 303 302 301 300 299 298 298 297 296 295 295 294 293 292 291 291 290 290 290 290 290 291 291 291 291 291 292 291 291 290 289 288 286 285 283 281 278 276 274 273 273 273 273 274 274 274 274 273 273 272 271 271 271 271 271 271 271
320 320 320 320 319 319 318 317 317 317 316 316 316 316 316 316 315 315 314 314 313 312 311 310 309 308 307 306 305 304 303 302 300 299 299 298 297 296 295 295 294 293 292 292 291 291 290 290 291 291 291 291 291 291 292 291 291 290 290 289 287 286 285 284 282 280 278 277 275 274 274 274 274 274 275 274 274 273 272 272 271 271 271 271 271 271
320 321 321 321 320 319 318 318 317 317 317 317 317 317 317 317 316 316 315 315 314 313 312 311 310 309 308 307 306 304 303 302 301 300 299 298 297 296 295 295 294 293 292 291 291 291 290 291 291 291 291 291 291 291 291 291 291 290 289 288 287 286 285 284 283 282 280 279 277 276 276 275 275 275 275 275 274 273 272 272 272 272 272 271 271 271
321 321 321 321 320 319 318 318 318 317 317 317 317 317 318 317 317 317 316 315 315 314 313 312 311 310 309 307 306 305 304 303 302 300 299 298 297 296 295 294 293 293 292 291 291 290 290 290 291 291 291 292 291 291 291 291 290 290 289 289 288 286 285 284 283 282 281 280 279 279 278 277 277 277 276 275 274 273 273 273 273 272 272 271 271 271
321 322 322 321 320 319 319 318 318 318 318 318 318 318 318 318 318 318 317 316 315 314 313 312 311 310 309 308 307 306 305 304 302 301 300 299 298 296 295 294 293 292 291 291 290 290 290 290 290 291 291 291 291 291 291 290 290 290 289 289 288 287 286 285 284 283 282 281 280 280 280 279 279 277 276 275 274 274 274 273 273 272 272 271 271 270
322 322 322 321 320 319 319 318 318 318 318 318 319 319 319 319 319 318 318 317 316 315 314 313 312 311 310 309 307 306 305 304 303 302 301 300 298 297 295 294 293 292 291 290 290 289 289 289 290 290 290 291 291 291 290 290 290 290 289 289 288 288 286 285 284 283 282 281 281 281 281 280 279 278 276 275 275 274 274 274 273 272 271 271 270 269
322 322 322 321 320 319 319 319 318 318 318 319 319 319 320 320 319 319 318 317 317 316 315 314 313 311 310 309 308 307 306 305 304 303 302 301 299 298 296 295 293 292 290 289 289 288 288 288 289 289 290 290 290 290 290 290 290 290 290 289 288 288 286 285 284 283 282 282 282 282 282 281 279 278 276 275 275 275 275 274 273 272 271 270 269 269
322 322 322 321 320 319 319 319 318 319 319 319 320 320 320 320 320 319 319 318 317 316 315 314 313 312 311 310 308 307 306 305 304 304 303 301 300 299 297 295 294 292 290 289 288 287 287 287 288 288 289 289 289 289 289 289 290 290 290 289 288 287 286 285 284 283 282 283 283 283 282 281 279 277 276 276 276 275 275 274 272 271 269 269 268 267
Height
10384 10384 10384 10384 10385 10386 10388 10392 10396 10400 10403 10407 10410 10413 10413 10415 10415 10415 10413 10413 10413 10415 10418 10420 10423 10426 10428 10430 10431 10432 10432 10431 10428 10425 10423 10426 10430 10432 10432 10432 10431 10431 10431 10431 10431 10431 10431 10431 10431 10431 10431 10431 10430 10430 10430 10430 10430 10430 10430 10430 10430 10430 10429 10429 10429 10429 10429 10430 10430 10430 10429 10429 10429 10429 10429 10430 10430 10430 10430 10430 10430 10430 10430 10430 10430 10430
10384 10383 10382 10382 10383 10384 10386 10389 10392 10395 10398 10401 10403 10405 10406 10406 10406 10406 10406 10406 10408 10410 10413 10416 10418 10421 10423 10424 10425 10426 10425 10424 10422 10419 10417 10418 10421 10423 10425 10425 10425 10425 10425 10425 10425 10425 10425 10425 10425 10424 10424 10423 10423 10423 10422 10422 10422 10422 10422 10421 10421 10421 10421 10421 10421 10420 10421 10421 10421 10421 10420 10420 10420 10420 10420 10420 10420 10421 10421 10421 10421 10421 10421 10421 10421 10420
10381 10381 10380 10381 10381 10382 10383 10386 10388 10390 10392 10395 10396 10398 10399 10399 10399 10399 10400 10401 10403 10405 10408 10410 10412 10414 10416 10417 10418 10419 10418 10418 10415 10413 10411 10411 10413 10415 10417 10417 10418 10418 10418 10418 10418 10417 10417 10417 10417 10416 10416 10416 10415 10415 10415 10415 10414 10414 10414 10413 10413 10413 10413 10412 10412 10411 10411 10411 10411 10411 10411 10411 10411 10411 10411 10411 10411 10411 10411 10411 10411 10411 10411 10411 10411 10411
10380 10380 10379 10380 10380 10381 10382 10384 10385 10386 10388 10390 10391 10393 10393 10393 10393 10394 10395 10396 10398 10400 10401 10404 10406 10408 10410 10411 10412 10413 10412 10411 10410 10408 10406 10406 10407 10408 10410 10410 10410 10410 10410 10410 10410 10410 10410 10410 10409 10409 10408 10408 10408 10407 10407 10406 10406 10406 10405 10405 10405 10405 10404 10404 10403 10403 10403 10403 10402 10402 10402 10402 10402 10402 10402 10402 10402 10402 10402 10402 10402 10402 10402 10402 10402 10402
10380 10380 10379 10379 10379 10380 10381 10382 10384 10385 10386 10387 10388 10389 10389 10390 10390 10390 10391 10392 10393 10395 10396 10398 10401 10403 10405 10406 10407 10408 10407 10406 10405 10403 10402 10401 10401 10402 10403 10403 10403 10403 10403 10403 10403 10403 10402 10402 10401 10401 10401 10400 10400 10400 10399 10398 10398 10398 10397 10396 10396 10396 10396 10395 10395 10394 10394 10393 10393 10393 10393 10393 10393 10393 10393 10393 10393 10393 10393 10393 10393 10393 10393 10393 10393 10393
10381 10380 10379 10379 10379 10379 10380 10381 10382 10383 10385 10386 10386 10387 10387 10387 10388 10388 10389 10390 10391 10391 10393 10393 10395 10396 10398 10400 10401 10403 10402 10401 10400 10399 10398 10396 10396 10396 10395 10395 10395 10395 10395 10395 10395 10395 10395 10395 10394 10393 10393 10393 10392 10391 10391 10390 10390 10390 10389 10388 10388 10387 10387 10386 10386 10385 10385 10385 10384 10384 10384 10384 10384 10384 10383 10383 10383 10383 10383 10383 10383 10383 10383 10384 10384 10384
10381 10380 10380 10379 10379 10379 10380 10380 10380 10381 10383 10384 10385 10385 10386 10386 10386 10387 10387 10388 10388 10388 10389 10389 10390 10390 10391 10393 10395 10396 10396 10396 10395 10394 10393 10391 10390 10389 10388 10388 10388 10388 10388 10388 10388 10387 10387 10386 10386 10385 10385 10385 10384 10383 10383 10382 10381 10381 10380 10380 10379 10379 10378 10378 10377 10376 10376 10376 10375 10375 10375 10375 10375 10375 10375 10375 10374 10374 10374 10374 10374 10374 10374 10375 10375 10375
10383 10381 10380 10380 10379 10379 10379 10379 10380 10380 10381 10381 10382 10383 10383 10384 10385 10385 10385 10385 10385 10385 10385 10385 10385 10385 10385 10386 10387 10388 10389 10389 10389 10388 10386 10385 10384 10383 10381 10381 10381 10380 10380 10380 10380 10380 10379 10378 10378 10377 10376 10376 10375 10375 10374 10374 10373 10373 10372 10371 10370 10370 10370 10369 10368 10368 10367 10367 10366 10366 10366 10366 10366 10365 10365 10365 10365 10365 10365 10365 10365 10365 10365 10365 10365 10365
10385 10383 10381 10380 10380 10379 10378 10378 10378 10379 10379 10379 10380 10380 10380 10381 10381 10381 10381 10381 10381 10381 10381 10381 10381 10381 10380 10380 10380 10381 10381 10381 10380 10380 10378 10377 10376 10375 10375 10374 10373 10373 10373 10373 10372 10371 10371 10370 10370 10369 10368 10368 10367 10366 10366 10365 10365 10364 10363 10363 10362 10361 10361 10360 10360 10359 10359 10358 10358 10358 10357 10357 10356 10356 10356 10356 10356 10356 10355 10355 10355 10355 10356 10356 10356 10356
10386 10384 10382 10381 10380 10379 10378 10378 10377 10378 10378 10377 10377 10377 10378 10378 10378 10378 10378 10378 10378 10378 10378 10378 10377 10376 10376 10376 10375 10375 10374 10373 10373 10371 10371 10370 10369 10368 10368 10367 10366 10366 10365 10365 10365 10364 10363 10363 10362 10361 10361 10360 10360 10359 10358 10357 10356 10356 10355 10354 10353 10353 10352 10351 10351 10351 10350 10350 10349 10348 10348 10348 10347 10347 10346 10346 10346 10346 10346 10346 10346 10346 10346 10346 10346 10347
10387 10385 10383 10382 10380 10380 10378 10378 10377 10376 10376 10376 10375 10375 10375 10375 10375 10374 10373 10373 10373 10373 10374 10373 10373 10372 10371 10371 10370 10370 10369 10367 10366 10365 10364 10363 10363 10362 10361 10360 10360 10359 10358 10358 10357 10356 10356 10355 10354 10353 10353 10353 10352 10351 10350 10349 10348 10348 10346 10346 10345 10345 10344 10343 10343 10342 10341 10341 10340 10340 10340 10339 10338 10338 10338 10338 10337 10337 10337 10337 10337 10337 10337 10337 10338 10338
10388 10386 10384 10383 10381 10380 10378 10377 10376 10376 10375 10374 10373 10373 10372 10372 10372 10371 10370 10369 10369 10369 10369 10368 10368 10368 10367 10366 10365 10365 10363 10362 10360 10359 10358 10358 10357 10356 10355 10353 10353 10352 10351 10351 10350 10349 10348 10348 10347 10346 10346 10345 10344 10343 10342 10341 10340 10340 10339 10338 10337 10336 10336 10335 10335 10334 10333 10333 10332 10331 10331 10330 10330 10330 10329 10329 10328 10328 10328 10328 10328 10328 10328 10328 10328 10329
10388 10386 10384 10383 10381 10380 10378 10377 10375 10375 10373 10372 10371 10370 10370 10369 10368 10368 10366 10366 10365 10365 10364 10363 10363 10363 10362 10361 10360 10359 10358 10356 10355 10354 10353 10353 10351 10350 10348 10347 10346 10346 10345 10344 10343 10342 10341 10341 10340 10340 10338 10338 10336 10336 10335 10333 10333 10332 10331 10330 10330 10329 10328 10327 10326 10326 10325 10324 10323 10323 10322 10322 10321 10321 10320 10320 10320 10320 10320 10320 10320 10320 10320 10320 10320 10320
10385 10384 10383 10381 10380 10378 10377 10376 10375 10373 10372 10371 10370 10368 10368 10366 10366 10365 10364 10363 10361 10361 10361 10359 10358 10357 10357 10356 10355 10354 10352 10350 10350 10349 10348 10347 10346 10344 10343 10341 10340 10340 10339 10338 10336 10335 10335 10335 10333 10333 10331 10331 10330 10328 10328 10326 10325 10325 10323 10323 10322 10321 10320 10320 10319 10318 10317 10316 10316 10315 10314 10314 10313 10313 10312 10311 10311 10311 10311 10311 10311 10311 10311 10311 10311 10311
10383 10381 10380 10378 10377 10376 10375 10374 10373 10371 10370 10369 10368 10366 10365 10364 10363 10362 10361 10360 10358 10358 10357 10355 10354 10353 10352 10351 10351 10349 10347 10346 10345 10344 10343 10341 10340 10339 10338 10336 10335 10334 10333 10332 10330 10329 10329 10328 10327 10326 10325 10324 10323 10321 10321 10320 10318 10317 10316 10316 10315 10314 10313 10312 10311 10310 10310 10308 10308 10307 10306 10306 10305 10305 10304 10303 10303 10303 10303 10303 10303 10303 10303 10303 10303 10303
10382 10380 10378 10377 10375 10374 10373 10371 10370 10368 10367 10366 10365 10363 10362 10361 10360 10358 10357 10356 10355 10354 10353 10351 10350 10348 10347 10346 10346 10344 10342 10341 10340 10338 10336 10335 10333 10333 10333 10331 10329 10328 10327 10326 10325 10323 10323 10322 10321 10320 10319 10318 10316 10315 10314 10313 10311 10310 10310 10308 10308 10306 10306 10305 10303 10303 10301 10301 10300 10299 10298 10298 10297 10296 10296 10295 10295 10295 10295 10294 10294 10294 10294 10294 10294 10294
10380 10379 10377 10375 10373 10372 10370 10369 10368 10366 10365 10363 10361 10360 10358 10357 10356 10354 10353 10351 10350 10349 10347 10346 10345 10343 10341 10340 10340 10339 10338 10335 10333 10332 10331 10328 10327 10327 10327 10326 10323 10321 10320 10320 10318 10317 10316 10316 10315 10313 10312 10311 10310 10308 10307 10306 10305 10303 10303 10301 10300 10300 10298 10297 10296 10295 10294 10293 10292 10291 10290 10290 10289 10288 10288 10287 10286 10286 10286 10286 10285 10285 10285 10285 10285 10285
10377 10376 10374 10372 10371 10369 10368 10366 10365 10363 10361 10360 10358 10356 10355 10353 10352 10350 10349 10347 10346 10344 10342 10341 10339 10337 10335 10333 10332 10332 10333 10330 10327 10325 10324 10321 10320 10320 10321 10320 10317 10315 10313 10313 10311 10311 10310 10309 10308 10306 10305 10304 10303 10301 10300 10298 10297 10296 10295 10294 10293 10292 10291 10290 10288 10287 10286 10285 10284 10283 10282 10281 10281 10280 10279 10279 10278 10278 10277 10277 10276 10276 10276 10276 10276 10276
10373 10371 10370 10368 10366 10365 10363 10362 10361 10359 10358 10356 10355 10353 10351 10350 10348 10346 10345 10343 10341 10340 10338 10336 10334 10332 10330 10328 10326 10326 10326 10325 10321 10319 10317 10315 10313 10313 10313 10313 10310 10308 10307 10305 10305 10304 10303 10302 10301 10300 10298 10297 10295 10294 10293 10291 10290 10289 10288 10286 10285 10284 10283 10281 10280 10279 10278 10277 10276 10275 10274 10273 10272 10271 10271 10270 10270 10269 10268 10268 10268 10267 10267 10266 10266 10266
10370 10368 10366 10365 10363 10361 10359 10358 10356 10355 10353 10351 10350 10348 10346 10344 10343 10341 10339 10338 10336 10335 10333 10331 10328 10326 10325 10323 10321 10320 10320 10318 10316 10313 10311 10309 10307 10306 10306 10306 10303 10301 10300 10298 10297 10297 10296 10295 10293 10292 10291 10290 10288 10286 10285 10283 10282 10281 10280 10278 10277 10276 10275 10273 10272 10271 10270 10269 10268 10266 10265 10265 10263 10263 10261 10261 10260 10260 10259 10258 10258 10258 10257 10257 10257 10256
10366 10365 10363 10361 10360 10357 10355 10353 10352 10350 10349 10346 10345 10343 10340 10338 10336 10335 10333 10331 10330 10328 10326 10324 10321 10320 10318 10316 10314 10313 10313 10311 10309 10306 10304 10303 10300 10299 10299 10298 10296 10294 10292 10291 10290 10290 10288 10287 10286 10285 10283 10281 10280 10278 10277 10276 10275 10273 10271 10270 10269 10268 10266 10265 10264 10263 10261 10260 10259 10258 10256 10256 10255 10253 10253 10252 10251 10250 10250 10249 10248 10248 10248 10248 10247 10247
10363 10361 10359 10358 10356 10354 10351 10350 10348 10346 10345 10342 10340 10338 10336 10333 10331 10329 10327 10326 10323 10321 10320 10317 10315 10313 10311 10308 10306 10305 10305 10303 10301 10299 10297 10295 10291 10290 10291 10290 10289 10286 10284 10283 10281 10281 10281 10279 10278 10276 10275 10273 10271 10270 10269 10268 10266 10265 10263 10262 10261 10260 10258 10257 10256 10255 10253 10252 10251 10250 10248 10247 10246 10245 10244 10243 10242 10241 10240 10240 10239 10239 10238 10238 10238 10238
10360 10357 10355 10353 10351 10350 10347 10345 10343 10341 10340 10338 10335 10333 10331 10329 10326 10324 10321 10320 10318 10315 10313 10311 10308 10306 10304 10301 10299 10296 10296 10295 10293 10291 10290 10286 10283 10281 10281 10281 10280 10277 10275 10273 10273 10272 10271 10270 10269 10268 10266 10265 10263 10261 10260 10259 10258 10256 10255 10254 10252 10251 10250 10248 10247 10246 10245 10243 10242 10241 10240 10238 10238 10236 10235 10234 10233 10232 10231 10231 10230 10230 10229 10228 10228 10228
10356 10353 10351 10349 10347 10345 10343 10341 10338 10336 10334 10332 10330 10328 10326 10323 10321 10318 10316 10314 10312 10310 10307 10305 10302 10299 10296 10295 10292 10289 10287 10286 10285 10283 10281 10278 10275 10273 10272 10271 10270 10267 10265 10265 10264 10263 10261 10260 10259 10258 10257 10255 10253 10252 10251 10250 10248 10247 10246 10245 10243 10242 10241 10240 10238 10237 10236 10235 10233 10232 10231 10230 10229 10228 10226 10225 10225 10223 10223 10221 10221 10220 10220 10220 10219 10218
10352 10350 10348 10345 10343 10341 10339 10336 10334 10331 10329 10327 10325 10323 10320 10318 10315 10313 10311 10308 10306 10303 10301 10298 10295 10292 10290 10288 10285 10281 10279 10278 10278 10276 10273 10271 10268 10266 10264 10263 10261 10258 10256 10255 10255 10255 10253 10251 10250 10249 10248 10246 10245 10243 10242 10241 10240 10238 10237 10236 10235 10233 10232 10231 10230 10228 10227 10226 10225 10224 10223 10221 10220 10219 10218 10216 10216 10215 10213 10213 10212 10211 10211 10210 10210 10209
10349 10346 10344 10342 10340 10337 10335 10332 10330 10327 10325 10322 10320 10317 10315 10312 10309 10306 10304 10302 10300 10298 10295 10291 10288 10286 10283 10281 10278 10274 10271 10270 10269 10268 10266 10263 10260 10258 10256 10255 10253 10251 10248 10246 10246 10246 10244 10242 10241 10240 10239 10237 10236 10235 10233 10232 10231 10230 10228 10226 10225 10225 10223 10222 10221 10220 10218 10218 10216 10215 10214 10213 10211 10210 10209 10208 10207 10206 10205 10204 10203 10203 10202 10201 10201 10200
10345 10343 10340 10338 10336 10333 10330 10328 10325 10322 10320 10317 10315 10311 10309 10306 10303 10300 10297 10295 10293 10291 10288 10285 10282 10279 10276 10274 10271 10267 10265 10262 10260 10259 10258 10256 10253 10250 10248 10247 10245 10243 10240 10238 10237 10237 10236 10234 10232 10231 10230 10228 10227 10226 10225 10223 10222 10221 10220 10218 10217 10216 10215 10213 10213 10211 10210 10209 10208 10207 10206 10205 10203 10201 10200 10199 10198 10197 10196 10195 10195 10194 10193 10193 10192 10191
10341 10338 10336 10334 10331 10329 10326 10323 10320 10318 10315 10311 10309 10306 10303 10300 10296 10293 10290 10288 10286 10284 10281 10278 10276 10273 10270 10267 10264 10261 10258 10255 10252 10251 10250 10248 10245 10241 10240 10238 10237 10235 10232 10230 10228 10228 10228 10226 10224 10223 10221 10220 10219 10218 10216 10215 10214 10212 10211 10210 10209 10208 10206 10205 10204 10203 10202 10201 10200 10198 10197 10196 10195 10193 10191 10190 10189 10188 10187 10186 10186 10186 10185 10185 10184 10183
10338 10335 10332 10330 10326 10324 10321 10318 10315 10313 10310 10306 10303 10300 10298 10295 10291 10287 10284 10282 10280 10276 10273 10271 10269 10266 10263 10260 10258 10254 10251 10248 10245 10243 10242 10240 10236 10233 10232 10230 10228 10225 10224 10221 10219 10218 10218 10217 10216 10214 10213 10211 10210 10209 10208 10206 10205 10204 10203 10201 10201 10200 10198 10197 10196 10195 10193 10192 10191 10190 10189 10187 10186 10184 10183 10181 10180 10180 10179 10178 10178 10178 10177 10176 10176 10175
10333 10330 10327 10325 10321 10319 10316 10313 10310 10307 10304 10301 10298 10295 10291 10288 10285 10281 10278 10275 10273 10270 10266 10264 10262 10260 10257 10254 10251 10248 10244 10241 10239 10237 10235 10232 10228 10225 10225 10222 10220 10217 10216 10213 10210 10208 10207 10207 10207 10206 10204 10202 10201 10200 10199 10198 10196 10195 10195 10193 10193 10191 10191 10190 10188 10186 10185 10184 10183 10181 10180 10178 10177 10175 10174 10173 10172 10171 10171 10170 10170 10170 10169 10168 10168 10167
10328 10325 10322 10319 10316 10313 10310 10307 10304 10301 10298 10295 10291 10288 10285 10282 10279 10276 10273 10270 10266 10263 10260 10257 10255 10253 10250 10248 10245 10241 10237 10235 10233 10231 10229 10225 10221 10218 10217 10215 10211 10209 10208 10206 10203 10199 10196 10196 10197 10197 10196 10194 10192 10191 10190 10189 10188 10187 10186 10185 10185 10184 10183 10181 10180 10178 10177 10176 10175 10173 10171 10170 10168 10167 10165 10165 10164 10163 10163 10163 10163 10162 10161 10161 10160 10160
10323 10320 10317 10314 10311 10308 10305 10301 10298 10295 10291 10288 10285 10282 10279 10276 10273 10270 10266 10263 10260 10257 10254 10251 10248 10246 10244 10241 10238 10235 10231 10228 10225 10223 10221 10218 10213 10211 10210 10207 10204 10201 10199 10198 10195 10191 10188 10186 10186 10186 10186 10185 10183 10182 10181 10181 10180 10179 10178 10178 10177 10176 10175 10174 10172 10170 10169 10168 10166 10165 10163 10161 10160 10159 10158 10157 10156 10156 10156 10156 10156 10155 10155 10154 10153 10152
10318 10315 10313 10310 10306 10303 10300 10296 10292 10289 10285 10282 10279 10275 10272 10269 10266 10263 10260 10257 10254 10251 10248 10245 10241 10239 10236 10235 10231 10229 10225 10222 10219 10216 10214 10210 10206 10203 10201 10200 10196 10193 10191 10189 10186 10184 10181 10178 10176 10176 10176 10175 10175 10174 10173 10173 10172 10171 10171 10170 10170 10168 10168 10166 10165 10163 10161 10160 10159 10157 10156 10154 10153 10151 10150 10150 10150 10150 10150 10150 10149 10149 10148 10147 10146 10146
10313 10310 10307 10304 10301 10297 10293 10290 10286 10283 10279 10276 10272 10269 10266 10262 10259 10256 10253 10250 10247 10245 10241 10238 10235 10232 10229 10226 10224 10221 10218 10215 10213 10210 10206 10203 10198 10195 10193 10191 10189 10186 10183 10181 10178 10176 10173 10170 10168 10166 10165 10165 10165 10166 10165 10165 10165 10165 10164 10163 10163 10161 10160 10160 10158 10156 10155 10153 10151 10150 10148 10147 10145 10145 10143 10143 10143 10143 10143 10143 10143 10143 10142 10141 10140 10140
10308 10305 10302 10299 10295 10291 10288 10284 10280 10276 10273 10270 10266 10263 10259 10256 10253 10250 10246 10243 10241 10238 10235 10232 10230 10226 10223 10220 10216 10213 10210 10208 10205 10202 10198 10195 10191 10188 10185 10183 10181 10179 10176 10173 10170 10168 10165 10163 10160 10159 10156 10155 10155 10156 10157 10157 10157 10157 10157 10156 10156 10155 10153 10153 10151 10150 10148 10146 10145 10143 10141 10140 10139 10138 10137 10137 10137 10137 10137 10137 10137 10136 10136 10135 10135 10135
10303 10300 10297 10293 10290 10286 10281 10278 10274 10270 10267 10263 10260 10256 10253 10250 10246 10243 10240 10236 10234 10231 10228 10225 10223 10220 10216 10213 10210 10206 10202 10200 10196 10194 10190 10187 10184 10181 10178 10175 10173 10171 10168 10165 10163 10161 10158 10155 10153 10151 10150 10148 10146 10147 10148 10150 10150 10150 10150 10150 10149 10148 10147 10146 10145 10143 10141 10140 10138 10137 10136 10135 10133 10132 10131 10131 10131 10131 10131 10131 10131 10131 10131 10130 10130 10129
10298 10295 10291 10288 10285 10280 10276 10272 10268 10265 10261 10257 10253 10250 10247 10243 10240 10236 10233 10230 10227 10224 10221 10218 10215 10212 10209 10206 10203 10199 10195 10192 10189 10186 10183 10180 10176 10173 10170 10168 10166 10164 10162 10159 10156 10153 10151 10148 10146 10145 10143 10141 10140 10139 10140 10141 10142 10143 10143 10143 10143 10142 10141 10140 10139 10138 10136 10134 10133 10131 10130 10128 10128 10127 10126 10126 10126 10126 10126 10126 10126 10126 10125 10125 10125 10124
10293 10290 10286 10283 10278 10275 10270 10266 10262 10258 10255 10251 10248 10244 10241 10237 10234 10231 10227 10224 10220 10217 10214 10211 10208 10205 10201 10198 10195 10192 10188 10185 10182 10179 10176 10173 10170 10167 10164 10161 10159 10157 10155 10153 10150 10147 10145 10142 10140 10138 10136 10135 10134 10133 10133 10133 10134 10135 10136 10136 10136 10136 10135 10135 10133 10132 10130 10128 10126 10125 10124 10123 10122 10121 10121 10121 10121 10122 10122 10121 10121 10121 10120 10120 10120 10120
10288 10284 10280 10276 10273 10268 10264 10260 10256 10253 10249 10245 10242 10238 10235 10231 10228 10225 10221 10218 10214 10211 10207 10204 10200 10197 10194 10191 10188 10185 10181 10178 10175 10172 10169 10166 10163 10161 10158 10155 10153 10151 10149 10146 10144 10141 10139 10136 10135 10133 10131 10129 10128 10127 10127 10127 10128 10128 10129 10130 10130 10130 10130 10129 10128 10126 10125 10123 10121 10120 10119 10118 10117 10117 10117 10117 10117 10118 10117 10117 10116 10116 10116 10115 10115 10115
10281 10278 10275 10271 10267 10263 10259 10255 10251 10246 10243 10240 10236 10233 10230 10226 10222 10218 10215 10211 10208 10204 10201 10197 10194 10190 10188 10185 10181 10178 10175 10171 10169 10166 10163 10160 10157 10155 10152 10150 10147 10145 10143 10141 10138 10136 10134 10131 10130 10128 10126 10124 10123 10121 10121 10121 10122 10123 10123 10123 10123 10123 10124 10124 10123 10121 10120 10118 10116 10115 10114 10113 10113 10113 10113 10113 10113 10113 10113 10113 10112 10112 10111 10111 10110 10110
10276 10272 10268 10265 10261 10256 10253 10249 10245 10241 10238 10234 10230 10226 10223 10220 10216 10212 10208 10205 10201 10198 10194 10190 10187 10183 10181 10178 10175 10172 10168 10165 10163 10160 10157 10155 10151 10149 10146 10144 10141 10140 10137 10135 10133 10131 10128 10126 10125 10123 10121 10120 10118 10117 10116 10116 10117 10118 10118 10117 10116 10117 10118 10118 10118 10117 10116 10114 10112 10111 10110 10109 10108 10108 10108 10109 10109 10109 10109 10109 10108 10108 10107 10107 10106 10106
10270 10266 10263 10259 10255 10250 10246 10242 10239 10235 10232 10228 10225 10221 10217 10214 10210 10206 10201 10198 10194 10190 10187 10183 10180 10176 10174 10171 10169 10166 10163 10160 10157 10154 10151 10149 10146 10144 10141 10139 10136 10134 10131 10129 10127 10125 10123 10121 10120 10118 10117 10116 10115 10113 10112 10112 10112 10113 10112 10112 10111 10111 10111 10112 10113 10112 10111 10110 10108 10107 10106 10105 10105 10104 10105 10105 10105 10105 10105 10105 10104 10104 10103 10103 10103 10103
10265 10261 10257 10253 10248 10245 10240 10236 10233 10229 10226 10222 10218 10215 10211 10208 10204 10200 10195 10191 10187 10183 10180 10176 10173 10170 10167 10165 10163 10160 10158 10155 10152 10149 10146 10144 10141 10139 10136 10134 10131 10129 10126 10124 10121 10120 10118 10117 10115 10114 10113 10112 10110 10109 10108 10108 10108 10108 10108 10108 10106 10106 10106 10106 10106 10107 10106 10105 10105 10104 10103 10101 10101 10100 10101 10101 10101 10101 10101 10101 10100 10100 10100 10099 10099 10098
10259 10255 10251 10247 10243 10238 10234 10230 10226 10223 10220 10216 10212 10208 10205 10201 10198 10193 10189 10185 10181 10177 10173 10170 10166 10164 10161 10159 10156 10154 10152 10150 10147 10145 10142 10139 10136 10134 10131 10129 10126 10124 10121 10119 10116 10115 10113 10112 10111 10110 10109 10108 10106 10105 10105 10104 10104 10103 10103 10103 10103 10101 10101 10101 10101 10101 10101 10101 10101 10100 10099 10098 10097 10097 10096 10097 10097 10097 10096 10096 10096 10096 10095 10095 10095 10095
10254 10250 10246 10241 10237 10233 10228 10224 10220 10217 10213 10210 10206 10203 10199 10195 10191 10187 10183 10178 10175 10171 10167 10164 10160 10157 10155 10153 10151 10148 10146 10145 10142 10140 10138 10135 10132 10130 10127 10124 10121 10120 10117 10115 10112 10110 10108 10106 10106 10105 10105 10104 10103 10101 10101 10100 10100 10100 10099 10099 10098 10098 10097 10096 10096 10096 10096 10096 10096 10096 10095 10095 10094 10093 10093 10093 10093 10093 10093 10092 10092 10091 10091 10091 10091 10091
10248 10245 10240 10235 10231 10226 10223 10218 10215 10211 10207 10204 10200 10196 10193 10189 10185 10181 10176 10173 10168 10165 10161 10158 10155 10151 10149 10146 10145 10143 10140 10138 10137 10135 10133 10131 10128 10125 10123 10120 10118 10115 10112 10110 10108 10106 10104 10102 10101 10100 10100 10100 10099 10098 10098 10096 10096 10095 10095 10095 10095 10093 10093 10093 10092 10091 10091 10091 10091 10091 10091 10091 10090 10090 10089 10089 10088 10088 10088 10088 10088 10088 10087 10087 10086 10086
10243 10239 10235 10230 10225 10221 10217 10213 10209 10205 10201 10198 10195 10191 10187 10183 10178 10174 10170 10166 10163 10158 10155 10152 10149 10146 10143 10141 10138 10136 10134 10133 10131 10130 10128 10126 10123 10121 10118 10116 10113 10111 10108 10106 10103 10101 10100 10098 10097 10096 10096 10095 10095 10094 10094 10093 10093 10091 10091 10091 10090 10090 10089 10088 10088 10088 10087 10086 10086 10087 10087 10087 10086 10086 10085 10085 10084 10084 10085 10085 10085 10084 10083 10083 10082 10082
10238 10234 10229 10225 10220 10216 10211 10208 10204 10200 10196 10193 10189 10185 10181 10178 10173 10168 10164 10160 10156 10153 10150 10146 10143 10140 10138 10135 10133 10131 10128 10126 10125 10123 10122 10121 10119 10116 10114 10112 10110 10107 10105 10102 10100 10098 10096 10094 10093 10093 10092 10091 10091 10090 10090 10090 10089 10088 10088 10087 10086 10086 10085 10084 10084 10083 10083 10083 10083 10083 10083 10083 10082 10081 10081 10080 10080 10080 10080 10081 10080 10080 10079 10078 10078 10078
10233 10229 10224 10220 10215 10210 10206 10202 10198 10195 10191 10187 10183 10180 10176 10172 10168 10163 10159 10155 10151 10147 10144 10141 10138 10135 10132 10130 10128 10125 10123 10121 10119 10118 10116 10115 10113 10111 10110 10108 10105 10103 10100 10098 10096 10094 10092 10090 10090 10089 10088 10088 10087 10086 10086 10086 10085 10085 10085 10084 10083 10081 10081 10080 10080 10079 10079 10078 10079 10079 10079 10079 10078 10078 10076 10076 10076 10076 10076 10077 10076 10076 10075 10075 10075 10075
10228 10224 10219 10215 10210 10205 10201 10197 10193 10190 10186 10182 10178 10175 10170 10166 10163 10158 10154 10150 10146 10142 10139 10136 10133 10130 10126 10124 10122 10120 10118 10115 10113 10112 10111 10110 10108 10106 10104 10103 10101 10098 10096 10094 10092 10090 10088 10087 10086 10085 10085 10085 10084 10083 10082 10082 10081 10081 10081 10080 10079 10078 10076 10076 10075 10075 10075 10075 10075 10075 10075 10075 10074 10073 10073 10072 10072 10073 10073 10073 10073 10072 10071 10071 10070 10071
10222 10218 10214 10209 10205 10200 10196 10192 10188 10185 10181 10177 10173 10169 10165 10161 10157 10153 10150 10145 10141 10138 10134 10131 10128 10125 10121 10119 10116 10114 10112 10110 10108 10106 10105 10104 10102 10101 10099 10097 10096 10094 10091 10090 10088 10086 10085 10083 10082 10081 10081 10081 10081 10080 10078 10078 10078 10078 10077 10076 10075 10074 10073 10071 10071 10070 10070 10071 10071 10071 10071 10071 10070 10069 10068 10068 10068 10069 10069 10069 10069 10068 10067 10067 10067 10067